星链-5428 (STARLINK-5428 )

导读 | 星芒AI

STARLINK-5428 是 SpaceX Starlink 卫星互联网项目中的一颗低轨通信卫星。它属于 Starlink 群体部署的一部分,旨在为全球用户提供高速、低延迟的互联网服务。该卫星运行在约 550 公里的近地轨道上,采用可展开的太阳能电池板供电,并具备自动避障功能以减少与空间碎片的碰撞风险。STARLINK-5428 于 2022 年由猎鹰 9 号火箭送入太空,是 SpaceX 打造全球宽带网络计划中的重要一环。

基本信息
目录编号:
54800
目录名称:
STARLINK-5428
国际标识:
2022-175AU
轨道中心:
EARTH
卫星名称:
星链-5428
卫星全名:
星链-5428 (STARLINK-5428 )
卫星状态:
在轨 (已飞行1053 天)
发射日期:
2022-12-17 UTC
国别 :
美国 (US)
星等 :
--
轨道信息
数据来源 国际轨道数据 AOE轨道数据
星历时间 2025-11-04T15:20:48+0800
12小时前
查看轨道信息
2025-10-30T21:00:00+0800
5天前
查看轨道信息
半长轴 6917.921km 6917.83km
偏心率 0.0001342 0.0001411
轨道倾角 53.217° 53.215°
近地点辐角 89.230° 90.161°
升交点赤经 236.759° 258.150°
平近点角 270.885° 296.340°
近地点 538.857km 538.718km
远地点 540.715km 540.672km
周期 95.438分钟 95.436分钟
每日圈数 15.08827 15.088567
详细信息
固有亮度:
5
最大亮度:
2.5
卫星平台:
Starlink v1.5
覆盖范围:
全球
运营商:
太空探索技术公司
运营商所在国:
美国
制造商(研发单位):
太空探索技术公司
制造商所在国:
美国
使用方式:
暂无
卫星简介
星链(Starlink)计划是由太空探索技术公司(SpaceX)提出的一个巨型低轨卫星互联网星座项目,计划在2019年至2024年间在太空搭建由约1.2万颗卫星组成的“星链”网络,其中1584颗将部署在地球上空550千米处的近地轨道,并从2020年开始工作。该卫星仍在工作。
2D轨道图
3D轨道图
轨道高度分析图
轨道倾角分析图
轨道综合分析图
查看轨道综合分析图